Theta_e
324 324 324 324 323 324 323 321 320 321 322 323 324 323 323 319 309 310 315 318 328 332 329 331 324 325 327 332 328 329 330 333 333
322 323 323 323 322 321 322 320 319 319 320 321 321 322 321 310 309 310 311 315 324 326 327 328 330 324 324 328 329 327 326 327 330
320 320 320 321 321 319 318 318 317 316 316 317 318 319 318 311 309 310 311 321 324 324 324 323 325 328 327 324 329 328 324 323 325
316 316 315 316 317 317 315 315 314 315 315 315 315 316 315 306 306 310 311 322 322 322 321 321 322 323 324 322 323 326 325 326 323
312 314 314 311 311 312 313 313 313 314 315 315 315 315 309 300 304 305 309 320 323 322 320 320 322 321 322 321 322 326 321 321 321
309 312 315 313 311 311 312 313 314 315 314 314 315 315 298 295 301 302 314 313 316 321 319 318 319 320 321 320 320 321 321 320 319
309 312 316 315 314 315 314 316 316 308 300 298 304 299 297 295 295 301 314 313 313 315 318 319 319 319 320 319 318 319 320 318 319
300 301 299 300 308 302 303 299 300 297 297 298 296 296 296 295 295 299 313 315 314 314 315 316 319 318 319 319 318 318 318 318 318
295 296 296 297 299 298 297 296 296 296 296 295 295 295 294 294 295 297 311 315 316 316 315 316 317 318 318 318 320 318 317 317 317
296 296 295 296 297 296 296 295 296 295 295 296 295 294 295 294 294 294 308 314 316 317 318 317 317 318 319 318 318 318 319 318 317
296 296 296 295 295 296 295 295 295 295 294 295 296 296 296 295 295 295 295 310 314 317 318 318 318 319 320 321 320 320 319 319 319
297 296 296 296 296 296 295 295 295 295 296 295 296 296 296 296 296 296 295 297 308 314 317 318 318 318 319 320 320 320 320 320 319
297 296 296 296 296 296 295 294 295 295 294 294 295 295 295 296 296 296 295 295 296 303 312 316 317 318 319 320 320 320 321 320 320
298 297 297 297 296 296 296 295 294 294 294 295 296 296 296 296 299 296 296 295 298 296 303 312 315 317 318 318 319 320 321 321 321
299 298 297 297 296 296 295 295 295 294 294 297 298 297 296 296 295 295 297 296 296 295 296 296 299 312 316 317 318 319 320 321 321
300 298 297 297 296 296 296 295 294 294 294 294 294 294 293 293 294 294 294 295 296 295 295 295 296 297 310 314 316 318 319 319 320
301 299 299 298 297 296 295 295 294 294 294 293 290 290 292 293 295 293 294 293 294 295 296 295 296 296 296 301 310 313 316 317 317
301 300 299 298 297 297 296 295 294 294 294 294 294 290 288 289 294 294 293 294 295 295 295 295 295 296 296 301 303 309 313 316 317
301 301 299 298 298 297 297 297 296 294 294 294 296 293 292 290 290 294 294 295 295 295 296 296 296 296 295 300 305 309 311 313 315
301 301 300 299 298 297 297 297 296 295 295 294 293 293 292 290 290 291 291 293 295 295 296 296 296 297 296 296 299 307 310 312 314
Wind_Speed
6 7 7 8 9 10 10 11 12 10 10 11 12 13 11 11 7 7 9 6 12 14 11 11 12 10 13 15 12 12 14 17 14
4 6 7 7 8 9 9 10 11 10 9 10 11 13 10 6 6 7 7 7 10 11 13 15 14 11 11 13 13 13 11 12 13
4 4 5 7 7 7 8 8 9 10 9 9 10 11 9 6 6 6 6 8 10 10 11 10 12 13 11 10 13 12 11 9 10
0 3 5 5 5 6 6 7 7 7 9 10 10 10 8 5 4 5 4 8 8 9 9 9 8 10 10 9 10 10 11 11 9
3 3 6 5 4 5 5 6 6 7 8 8 8 8 7 4 3 3 4 9 9 8 8 8 10 9 9 9 8 11 9 10 11
5 6 6 5 4 4 5 5 5 7 8 9 9 7 2 3 3 3 8 8 8 8 6 6 8 8 8 8 8 8 8 9 8
5 6 8 6 5 7 7 8 8 7 3 4 7 3 4 3 4 3 9 8 8 7 8 7 6 7 7 7 7 8 9 7 9
2 2 3 3 5 3 4 5 3 5 4 4 4 5 4 3 3 6 11 10 9 8 8 7 7 7 8 6 6 7 7 8 7
3 2 4 3 2 4 3 2 4 5 5 4 6 6 4 3 3 6 12 13 11 10 10 9 8 8 7 9 9 7 7 7 7
3 3 3 3 2 2 3 3 4 4 5 5 5 6 6 6 3 3 12 14 15 13 12 11 10 10 9 9 9 10 10 8 7
4 3 3 3 3 3 3 3 4 4 4 6 6 6 6 6 6 4 5 14 15 16 14 13 12 12 12 12 11 11 11 11 11
4 4 3 4 2 3 3 3 3 4 3 6 6 5 7 6 6 5 5 6 13 16 16 15 14 14 14 14 14 13 13 13 13
5 4 4 3 3 2 2 2 4 4 4 5 6 5 5 7 7 5 5 4 4 9 15 17 17 16 15 16 16 16 16 15 14
5 4 5 4 3 3 2 2 2 3 4 5 5 6 5 6 5 6 6 6 5 4 10 16 17 18 18 17 17 17 17 17 17
5 5 5 4 3 3 2 3 1 3 4 6 8 8 5 4 4 5 5 5 5 5 6 5 6 16 19 19 19 18 18 18 18
6 5 5 4 4 4 3 1 2 3 2 4 5 4 3 3 2 3 3 4 4 4 5 4 4 5 16 19 20 20 20 19 19
6 6 6 5 4 5 4 3 1 2 1 1 1 6 6 5 4 3 3 3 2 3 5 5 6 5 4 10 18 20 21 21 20
7 7 5 6 4 5 5 4 5 2 2 3 2 3 3 4 4 5 4 4 4 5 5 6 6 6 5 9 11 18 20 21 21
7 7 6 6 4 6 5 5 5 4 4 1 4 2 2 2 6 3 4 4 4 5 5 5 6 6 5 10 14 18 20 20 21
6 6 6 6 5 5 6 5 6 4 3 4 2 3 2 2 4 8 5 3 5 4 5 5 6 7 6 5 9 17 18 19 20
Wind_Direction
51 53 45 49 45 39 49 47 50 59 58 45 49 44 40 34 18 15 6 358 24 37 50 41 47 38 23 36 40 26 28 34 46
46 44 41 41 43 42 37 45 46 52 53 44 40 40 42 40 20 12 355 323 39 28 27 33 38 47 34 25 30 34 25 21 24
44 38 26 26 28 33 35 32 40 44 44 36 36 41 45 36 19 356 352 5 25 25 20 20 17 27 41 31 26 37 29 18 17
316 7 11 15 15 23 25 23 23 25 25 22 23 34 41 42 1 348 339 0 25 25 17 17 24 18 23 24 18 22 27 33 20
295 319 336 357 2 7 11 10 14 12 4 354 350 10 25 6 338 332 308 349 359 15 18 7 2 12 9 21 15 24 25 12 16
301 292 304 346 354 355 355 358 1 2 353 341 340 349 352 318 297 294 301 334 341 346 3 356 346 357 6 3 2 358 17 9 5
271 272 292 312 318 332 333 336 347 352 332 326 340 322 309 302 285 274 284 305 322 327 330 330 336 332 341 345 349 341 348 350 355
301 298 300 305 302 320 330 335 332 327 323 313 309 305 296 278 277 282 279 286 297 311 309 308 306 314 311 316 320 323 332 331 335
270 273 272 273 275 290 301 298 302 302 297 293 302 307 299 286 275 277 277 277 284 291 296 293 294 291 295 299 304 300 307 312 323
232 246 255 259 274 263 281 282 291 290 298 298 284 290 288 286 276 273 279 273 276 278 283 287 285 285 282 279 286 293 296 296 293
228 246 253 263 243 258 263 268 280 289 305 297 293 281 278 277 273 261 269 275 274 274 276 282 285 285 282 280 279 281 285 288 292
229 235 250 255 262 266 267 286 283 292 296 287 290 284 278 275 272 268 258 270 272 273 277 276 281 284 282 280 278 278 280 280 282
226 236 244 244 236 232 248 265 284 279 285 289 287 278 274 269 265 264 261 260 255 271 271 274 273 275 278 280 280 279 274 275 274
214 227 247 235 239 246 235 268 221 292 300 294 285 280 267 269 289 278 270 258 253 251 269 272 274 278 280 283 282 283 280 278 280
216 234 244 224 232 253 236 245 266 253 280 296 295 285 285 282 271 280 289 284 277 268 259 264 274 275 278 282 284 285 282 279 279
217 228 237 216 218 233 224 228 245 303 324 328 319 308 307 317 305 291 303 304 292 278 270 264 261 283 278 280 281 285 286 286 280
220 221 230 221 223 237 234 199 292 264 278 308 114 346 334 346 330 344 358 327 306 306 289 278 271 262 260 265 276 277 278 279 282
219 224 222 227 204 226 214 199 192 225 297 222 159 345 286 321 325 336 333 356 343 319 303 292 270 260 253 270 272 275 277 277 277
223 225 219 221 207 221 214 193 198 158 227 310 230 249 171 314 325 321 289 324 305 289 295 292 286 278 260 270 273 276 278 275 275
235 226 221 223 211 222 210 195 196 191 183 182 167 223 243 246 238 295 298 275 250 262 265 271 280 279 277 274 272 284 285 281 278